www.pogodaiklimat.ru

Погода и климат >> Архив погоды >> Норвегия >> Экофиск


ПОГОДА в Экофиске

  • Прогноз погоды в Экофиске
  • Монитор погоды в Экофиске

АРХИВ ПОГОДЫ в Экофиске

Время (UTC), дата Ветер
(напр.,м/с)
 
Видим.   Явления Облачность Т
(С)
Тd
(С)
f
(%)
Тe
(С)
Тes
(С)
Комфортность P
(гПа)
Po
(гПа)
Тmin
(С)
Tmax
(С)
R
(мм)
R24
(мм)
S
(см)
01 9.06 З 14 н/о н/о +10.6 +9.8 95 +5 +5 1009.1 1002.1
02 9.06 З 13 н/о н/о +10.9 +9.4 90 +6 +6 1010.4 1003.4
03 9.06 З 12 20 км 10/4 300 м
[Sc Ac As]
+11.0 1011.1 1005.9
04 9.06 З 11 н/о н/о +10.9 +8.4 85 +7 +7 1012.5 1005.5
05 9.06 З 9 н/о н/о +10.8 +8.3 85 +7 +7 1013.5 1006.5
06 9.06 ЮЗ 9
{16}
20 км {метель} 6/5 300 м
[Sc Ci fib]
+10.8 1013.9 1008.9
07 9.06 ЮЗ 6 н/о н/о +11.0 +8.8 86 +8 +8 1015.2 1008.1
08 9.06 ЮЗ 7 н/о н/о +11.2 +9.7 90 +8 +8 1016.2 1009.1
09 9.06 ЮЗ 7 20 км {гроза} 4/3 300 м
[Cb calv Ac trans Ci fib]
+11.4 1016.2 1011.2
10 9.06 ЮЗ 6 н/о н/о +12.1 +10.4 89 +9 +9 1017.4 1010.4
11 9.06 ЮЗ 6 н/о н/о +11.7 +10.3 91 +9 +9 1017.8 1010.8
12 9.06 ЮЗ 7
{10}
20 км {дождь} 4/1 200 м
[Cu med, cong Ac trans Cs]
+11.6 1017.9 1012.7
13 9.06 ЮЗ 6 н/о н/о +11.9 +10.0 88 +9 +9 1018.2 1011.1
14 9.06 ЮЗ 7 н/о н/о +11.8 +9.8 88 +9 +9 1018.6 1011.5
15 9.06 ЮЗ 6 20 км {туман} 5/1 300 м
[Cb calv Cs]
+11.9 1018.5 1013.3
16 9.06 ЮЗ 5 н/о н/о +11.8 +9.5 86 +9 +9 1018.8 1011.8
17 9.06 ЮЗ 5 н/о н/о +11.8 +10.1 89 +9 +9 1019.2 1012.1
18 9.06 ЮЗ 4
{7}
20 км {метель} 5/3 600 м
[Cu hum Cs]
+11.9 1019.4 1014.2
19 9.06 ЮЗ 4 н/о н/о +11.5 +9.8 89 +9 +9 1019.8 1012.7
20 9.06 ЮЗ 4 н/о н/о +11.5 +10.1 91 +9 +9 1020.0 1012.9
21 9.06 Ю 4 20 км {метель} 3/0
[Cs]
+11.4 1019.9 1014.7
22 9.06 Ю 4 н/о н/о +11.3 +10.3 94 +9 +9 1020.2 1013.1
23 9.06 Ю 5 н/о н/о +11.3 +10.2 93 +8 +8 1020.3 1013.2
00 10.06 Ю 5
{6}
20 км 8/0
[Cs]
+11.3 1020.1 1014.9
01 10.06 Ю 5 н/о н/о +11.4 +10.2 92 +9 +9 1020.1 1013.0
02 10.06 Ю 5 н/о н/о +11.4 +10.0 91 +9 +9 1020.0 1012.9
03 10.06 Ю 4 20 км 3/0
[Ac As Cs]
+11.5 1019.5 1014.3
04 10.06 Ю 3 н/о н/о +11.5 +10.1 91 +10 +10 1019.6 1012.5
05 10.06 н/о н/о +11.4 +10.7 95 1019.7 1012.6
06 10.06 Ю 4
{6}
4000 м {гроза} 3/1 50 м
[St Ci fib]
+11.4 1019.6 1014.4
07 10.06 Ю 4 н/о н/о +11.4 +10.7 95 +9 +9 1020.1 1013.0
08 10.06 н/о н/о +11.4 +9.9 90 1020.3 1013.2
09 10.06 Ю 4 20 км {ливн. осадки} 4/0
[Ac trans Ci fib]
+11.5 1020.2 1015.1
10 10.06 ЮВ 3 н/о н/о +12.1 +9.7 85 +10 +10 1020.5 1013.4
11 10.06 н/о н/о +12.4 +8.0 75 1020.6 1013.5
12 10.06 ЮВ 4
{5}
20 км {снег} 3/0
[Ci fib]
+12.8 1020.3 1015.1
13 10.06 ЮВ 3 н/о н/о +13.4 +7.6 68 +12 +12 1020.5 1013.5
14 10.06 ЮВ 1 н/о н/о +14.1 +5.4 56 +15 +15 1020.3 1013.3
15 10.06 Ю 1 50 км {снег} 3/0
[Ci fib]
+17.0 1020.1 1015.0
16 10.06 С 2 н/о н/о +14.1 +7.3 64 +14 +14 1020.5 1013.5
17 10.06 С 3 н/о н/о +13.2 +8.3 72 +12 +12 1020.4 1013.4
18 10.06 С 5
{5}
50 км {снег} 3/0 2000 м
[Ac As Ci fib]
+12.9 1020.2 1015.1
19 10.06 С 3 н/о н/о +12.9 +9.8 81 +12 +12 1020.4 1013.4
20 10.06 С 2 н/о н/о +12.8 +10.5 86 +12 +12 1020.5 1013.5
21 10.06 С 4 50 км {снег} 5/4 200 м
[St Ac As]
+12.0 1020.3 1015.4
22 10.06 С 4 н/о н/о +11.6 +9.9 89 +9 +9 1020.3 1013.2
23 10.06 С 6 н/о н/о +11.4 +9.8 90 +8 +8 1019.8 1012.7
00 11.06 С 8
{9}
50 км {гроза} 4/4 300 м
[Sc]
+11.3 1019.4 1014.6
01 11.06 С 7 н/о н/о +11.2 +9.2 87 +8 +8 1019.5 1012.4
02 11.06 С 6 н/о н/о +10.8 +8.4 85 +8 +8 1019.6 1012.5
03 11.06 С 6 50 км 8/8 300 м
[Sc]
+10.7 1019.2 1014.0
04 11.06 С 6 н/о н/о +10.7 +7.8 82 +7 +7 1019.3 1012.2
05 11.06 С 8 н/о н/о +10.1 +7.6 84 +6 +6 1018.8 1011.7
06 11.06 С 10
{12}
20 км {туман} 9/8 300 м
[Sc Cs]
+10.0 1018.1 1012.9
07 11.06 С 11 н/о н/о +10.2 +7.6 84 +6 +6 1018.3 1011.2
08 11.06 С 11 н/о н/о +10.3 +7.1 81 +6 +6 1018.4 1011.3
09 11.06 С 9 20 км {снег} 4/3 300 м
[Sc Cs]
+10.4 1018.0 1012.8
10 11.06 С 8 н/о н/о +10.7 +7.9 83 +7 +7 1017.7 1010.6
11 11.06 С 10 н/о н/о +10.7 +7.9 83 +6 +6 1017.3 1010.2
12 11.06 С 9
{13}
20 км {ливн. осадки} 10/4 300 м
[Sc Ac As Cs]
+10.8 1017.0 1011.8
13 11.06 С 11 н/о н/о +10.8 +8.8 87 +6 +6 1016.9 1009.8
14 11.06 С 11 н/о н/о +10.9 +9.1 89 +6 +6 1016.7 1009.6
15 11.06 С 9 10 км 10/1 300 м
[Frnb As op]
+10.8 1016.4 1011.2
16 11.06 С 7 н/о н/о +10.9 +9.7 92 +7 +7 1016.5 1009.4
17 11.06 С 8 н/о н/о +10.9 +9.9 94 +7 +7 1016.1 1009.0
18 11.06 С 8
{13}
4000 м 10/9 300 м
[Frnb As op]
+11.2 1015.6 1010.4
19 11.06 С 11 н/о н/о +11.3 +10.5 95 +7 +7 1015.1 1008.1
20 11.06 С 9 н/о н/о +12.3 +11.4 94 +9 +9 1014.8 1007.8
21 11.06 С 8 10 км {гроза} 10/9 300 м
[Frnb As op]
+12.0 1014.8 1009.6
22 11.06 С 10 н/о н/о +11.9 +11.2 95 +8 +8 1013.6 1006.6
23 11.06 С 9 н/о н/о +12.1 +11.4 95 +9 +9 1013.2 1006.2
00 12.06 СВ 10
{14}
4000 м {туман} 10/9 100 м
[Frnb As op]
+12.4 1012.3 1007.3
01 12.06 СВ 11 н/о н/о +12.4 +11.7 95 +9 +9 1011.5 1004.5
02 12.06 СВ 11 н/о н/о +11.8 +11.4 97 +8 +8 1011.9 1005.0
03 12.06 В 8 50 м {морось} ?/? 1012.0 1007.0
04 12.06 В 5 н/о н/о +11.7 +11.4 98 +9 +9 1012.4 1005.4
05 12.06 В 4 н/о н/о +11.9 +11.6 98 +10 +10 1012.2 1005.3
06 12.06 В 6
{14}
50 м н/о 1012.8 1007.9
07 12.06 СВ 7 н/о н/о +11.7 +11.5 99 +8 +8 1012.8 1005.8
08 12.06 СВ 9 н/о н/о +11.7 +11.5 99 +8 +8 1013.3 1006.3
09 12.06 В 9 200 м н/о 1013.3 1008.4
10 12.06 В 10 н/о н/о +11.4 +11.2 99 +7 +7 1013.4 1006.4
11 12.06 В 10 н/о н/о +11.2 +11.0 99 +7 +7 1013.1 1006.1
12 12.06 В 9
{11}
4000 м {метель} 10/10 100 м
[St]
+11.2 1013.1 1008.4
13 12.06 В 10 н/о н/о +11.5 +10.1 91 +8 +8 1013.0 1006.0
14 12.06 СВ 10 н/о н/о +11.5 +9.8 89 +8 +8 1012.5 1005.5
16 12.06 СВ 11 н/о н/о +11.3 +9.6 89 +7 +7 1011.1 1004.1
17 12.06 СВ 11 н/о н/о +11.2 +9.5 89 +7 +7 1011.3 1004.3
18 12.06 СВ 12
{14}
2000 м {морось} 10/9 200 м
[Sc]
+10.8 1010.4 1005.5
19 12.06 СВ 12 н/о н/о +10.4 +9.9 97 +6 +6 1009.9 1002.9
20 12.06 СВ 13 н/о н/о +10.3 +9.8 97 +5 +5 1009.2 1002.2
21 12.06 СВ 13 10 км {метель} 10/9 100 м
[Frnb]
+10.2 1008.1 1003.1
22 12.06 СВ 12 н/о н/о +10.5 +9.6 94 +6 +6 1007.5 1000.5
23 12.06 СВ 12 н/о н/о +10.4 +9.7 95 +6 +6 1006.3 999.3
00 13.06 СВ 11
{16}
10 км {метель, туман} 10/9 100 м
[Frnb]
+10.4 1005.0 1000.2
01 13.06 СВ 11 н/о н/о +10.7 +10.3 97 +6 +6 1003.6 996.7
02 13.06 СВ 8 н/о н/о +11.1 +10.8 98 +7 +7 1002.3 995.4
03 13.06 В 6 200 м {морось} ?/? 1001.7 996.9
04 13.06 ЮВ 8 н/о н/о +11.6 +11.4 99 +8 +8 1001.3 994.4
05 13.06 Ю 10 н/о н/о +11.4 +11.2 99 +7 +7 1000.9 994.0
06 13.06 Ю 11
{13}
20 км 9/9 200 м
[Sc]
+11.7 1001.2 996.4
07 13.06 Ю 12 н/о н/о +11.5 +9.4 87 +7 +7 1002.0 995.0
08 13.06 Ю 11 н/о н/о +11.6 +9.9 89 +7 +7 1002.5 995.6
09 13.06 Ю 8 20 км 8/8 300 м
[Cu Sc]
+11.7 1002.7 997.7
10 13.06 Ю 7 н/о н/о +11.7 +10.3 91 +8 +8 1003.4 996.5
11 13.06 Ю 9 н/о н/о +12.2 +9.9 86 +9 +9 1003.6 996.7
12 13.06 ЮВ 9
{14}
20 км {гроза} 9/9 300 м
[Cu Sc]
+11.7 1003.7 998.7
13 13.06 ЮВ 9 н/о н/о +11.9 +10.6 92 +8 +8 1004.1 997.2
14 13.06 ЮВ 10 н/о н/о +12.1 +10.6 91 +8 +8 1004.2 997.3
15 13.06 ЮВ 9 10 км {ливн. осадки} 8/4 300 м
[Cu Sc Ac As Ci sp]
+12.1 1004.2 999.1
16 13.06 ЮВ 10 н/о н/о +12.2 +10.7 91 +9 +9 1004.1 997.2
17 13.06 ЮВ 11 н/о н/о +12.2 +10.6 90 +8 +8 1003.6 996.7
18 13.06 ЮВ 11
{13}
20 км {ливн. осадки} 9/4 300 м
[Sc Ac trans Ci sp]
+12.2 1003.6 998.5
19 13.06 ЮВ 13 н/о н/о +12.3 +10.4 88 +8 +8 1003.4 996.5
20 13.06 ЮВ 12 н/о н/о +12.3 +10.5 89 +8 +8 1004.0 997.0
21 13.06 ЮВ 12 20 км 9/5 300 м
[Sc Ac As]
+12.2 1004.3 999.2
22 13.06 ЮВ 11 н/о н/о +12.1 +10.7 91 +8 +8 1005.0 998.1
23 13.06 ЮВ 11 н/о н/о +12.1 +10.8 92 +8 +8 1005.5 998.6
00 14.06 ЮВ 11
{14}
4000 м {метель} 9/8 200 м
[Cu Sc Ac As]
+11.9 1005.5 1000.5
01 14.06 ЮВ 10 н/о н/о +11.7 +10.9 95 +8 +8 1005.9 999.0
02 14.06 ЮВ 9 н/о н/о +11.6 +11.1 97 +8 +8 1006.2 999.3
03 14.06 Ю 5 4000 м 10/10 100 м
[Cu Sc]
+10.5 1007.0 1002.0
04 14.06 н/о н/о +10.5 +10.1 97 1007.7 1000.7
05 14.06 Ю 4 н/о н/о +11.1 +10.6 97 +9 +9 1008.2 1001.2
06 14.06 Ю 4
{13}
10 км {гроза} 9/4 600 м
[Cu Sc Ac As]
+11.1 1008.6 1003.6
07 14.06 Ю 4 н/о н/о +11.2 +10.6 96 +9 +9 1009.6 1002.6
08 14.06 ЮВ 4 н/о н/о +11.2 +10.6 96 +9 +9 1010.0 1003.0
09 14.06 ЮВ 5 20 км {морось} 9/5 300 м
[Sc Ac As]
+11.3 1010.3 1005.3
10 14.06 ЮВ 5 н/о н/о +11.7 +11.0 95 +9 +9 1010.9 1003.9
11 14.06 ЮВ 8 н/о н/о +12.0 +11.4 96 +9 +9 1011.0 1004.0
12 14.06 Ю 7
{9}
10 км {туман} 9/5 200 м
[Cu Sc Ac As]
+12.1 1011.3 1006.3
13 14.06 ЮВ 8 н/о н/о +12.1 +11.2 94 +9 +9 1012.0 1005.0
14 14.06 ЮВ 8 н/о н/о +11.9 +11.1 95 +8 +8 1012.0 1005.0
15 14.06 ЮВ 8 10 км 9/5 200 м
[Cb calv Ac As]
+12.3 1011.8 1006.6
16 14.06 ЮВ 8 н/о н/о +12.4 +11.3 93 +9 +9 1012.4 1005.4
17 14.06 ЮВ 8 н/о н/о +12.3 +11.2 93 +9 +9 1013.0 1006.1
18 14.06 ЮВ 8
{10}
20 км {метель} 5/0 2000 м
[Ac As Ci fib]
+12.7 1012.8 1007.6
19 14.06 ЮВ 9 н/о н/о +12.5 +10.9 90 +9 +9 1013.3 1006.3
20 14.06 ЮВ 9 н/о н/о +12.5 +11.2 92 +9 +9 1013.9 1006.9
21 14.06 ЮВ 9 10 км 5/0 1500 м
[Ac trans Ci fib]
+12.5 1014.2 1009.0
22 14.06 ЮВ 9 н/о н/о +12.5 +11.6 94 +9 +9 1014.7 1007.7
23 14.06 ЮВ 9 н/о н/о +12.3 +11.6 95 +9 +9 1014.4 1007.4
00 15.06 ЮВ 7
{10}
20 км {метель} 4/0 1500 м
[Ac trans Ci fib]
+12.1 1014.3 1009.1
01 15.06 ЮВ 8 н/о н/о +12.1 +11.4 95 +9 +9 1014.2 1007.2
02 15.06 ЮВ 6 н/о н/о +12.2 +11.4 95 +9 +9 1014.0 1007.0
03 15.06 ЮВ 6 10 км 3/1 300 м
[Cu med, cong Ac As Ci fib]
+11.9 1013.8 1008.6
04 15.06 ЮВ 5 н/о н/о +12.3 +11.1 92 +10 +10 1013.9 1006.9
05 15.06 В 6 н/о н/о +12.7 +11.1 90 +10 +10 1013.6 1006.6
06 15.06 В 6
{8}
20 км 4/1 600 м
[Cu hum Ac As Ci fib]
+12.9 1013.3 1008.1
07 15.06 ЮВ 5 н/о н/о +13.0 +11.0 88 +11 +11 1013.7 1006.7
08 15.06 ЮВ 4 н/о н/о +13.2 +11.4 89 +11 +11 1013.5 1006.5
09 15.06 ЮВ 4 2700 м {ливн. осадки} 9/4 600 м
[Cu Sc Ac cast]
+13.6 1013.4 1008.2
10 15.06 ЮВ 3 н/о н/о +13.7 +11.5 87 +13 +13 1013.4 1006.5
11 15.06 В 3 н/о н/о +13.2 +11.4 89 +12 +12 1013.7 1006.7
12 15.06 ЮВ 4
{6}
10 км {снег} 9/0 1000 м
[Ac As]
+13.3 1013.6 1008.6
13 15.06 ЮВ 5 н/о н/о +13.0 +12.3 96 +11 +11 1013.6 1006.6
14 15.06 Ю 3 н/о н/о +13.4 +11.6 89 +12 +12 1013.2 1006.2
15 15.06 ЮЗ 4 20 км {снег} 9/0 1000 м
[Ac As]
+13.0 1012.6 1007.6
16 15.06 З 5 н/о н/о +13.9 +8.3 69 +12 +12 1012.2 1005.3
17 15.06 З 6 н/о н/о +13.7 +10.0 78 +12 +12 1012.5 1005.6
18 15.06 ЮЗ 6
{7}
50 км {дождь} 9/0 2000 м
[Ac As]
+12.6 1012.5 1007.5
19 15.06 ЮЗ 5 н/о н/о +12.3 +10.9 91 +10 +10 1012.6 1005.6
20 15.06 ЮЗ 4 н/о н/о +13.5 +9.6 77 +12 +12 1012.6 1005.7
21 15.06 ЮЗ 3 20 км {дождь} 4/0
[Ac As]
+13.5 1012.6 1007.6
22 15.06 ЮЗ 3 н/о н/о +13.1 +7.8 70 +12 +12 1012.8 1005.8
23 15.06 Ю 4 н/о н/о +12.9 +7.7 71 +11 +11 1012.9 1005.9
00 16.06 Ю 4
{7}
50 км {дождь} 3/0
[Ac As Ci fib]
+13.0 1012.5 1007.6

 

Местоположение метеостанции Экофиск (Норвегия): широта 56.54 долгота 3.22 высота над уровнем моря 50 м.

В архиве по умолчанию представлена погода в Экофиске за последнюю неделю. Архивные данные за месяц целиком и за предыдущие месяцы, начиная с января 2011 года, Вы можете получить, выбрав интересующий диапазон дат из раскрывающегося списка и нажав кнопку "Ввод!".


*Определитесь, кто Вы:
робот инопланетянин человек

Внимание! Время в таблицах - всемирное. Для получения местного времени необходимо прибавить поправку, которая равна 1 ч.

Смотрите также архив погоды в соседних городах и на ближайших метеорологических станциях:

Погода на Платформе A12-cpp (Нидерланды) (130 км)
Погода на Платформе F3-fb-1 (Нидерланды) (210 км)
Погода на Платформе D15-fa-1 (Нидерланды) (248 км)
Погода в Айгеройе (Норвегия) (264 км)
Погода на Маяке Lista (Норвегия) (266 км)
Погода на Маяке Obrestad (Норвегия) (273 км)
Погода на Платформе F16-a (Нидерланды) (274 км)
Погода на Маяке Lindesnes (Норвегия) (281 км)
Погода в Сархейме (Норвегия) (286 км)
Погода в Эйк-Хоуве (Норвегия) (294 км)

Пояснения к столбцам:

Ветер - указаны скорость ветра в м/с - средняя за 10 мин, порывы в срок и между сроками (в фигурных скобках) и направление, откуда дует ветер: С - северный, СВ - северо-восточный, В - восточный, ЮВ - юго-восточный, Ю - южный, ЮЗ - юго-западный, З - западный, СЗ - северо-западный.
Видимость - горизонтальная дальность видимости в метрах или километрах. При видимости от 1 до 10 км при отсутствии осадков обычно наблюдается дымка, при ухудшении видимости до 1 км и менее - туман. В сухую погоду видимость может ухудшаться дымом, пылью или мглою.
Явления - указаны атмосферные явления, наблюдавшиеся в срок или в последний час перед сроком; фигурными скобками обозначены явления, наблюдавшиеся между сроками (за 1-3 часа до срока); квадратными скобками обозначены град или гололедные отложения с указанием их диаметра в мм.
Облачность - указаны через наклонную черту общая и нижняя облачность в баллах и высота нижней границы облаков в метрах; квадратными скобками обозначены формы облаков: Ci - перистые, Cs - перисто-слоистые, Cc - перисто-кучевые, Ac - высококучевые, As - высокослоистые, Sc - слоисто-кучевые, Ns - слоисто-дождевые, Cu - кучевые, Cb - кучево-дождевые. Подробнее классификацию облаков см. в Атласе облаков (PDF).
T - Температура воздуха - температура, измеренная на высоте 2 м над землей.
Td - Температура точки росы - температура, при понижении до которой содержащийся в воздухе водяной пар достигнет насыщения.
f - Относительная влажность воздуха - влажноcть воздуха, измеренная на высоте 2 м над землей.
Te - Эффективная температура - температура, которую ощущает одетый по сезону человек в тени. Характеристика душности погоды. При расчете учитывается влияние влажности воздуха и скорости ветра на теплоощущения человека.
Tes - Эффективная температура на солнце - температура, которую ощущает человек, с поправкой на солнечный нагрев. Характеристика знойности погоды. Зависит от высоты солнца над горизонтом, облачности и скорости ветра. Ночью, в пасмурную погоду, а также при ветре 12 м/с и более поправка равна нулю.
P - Атмосферное давление - приведенное к уровню моря атмосферное давление.
Po - Атмосферное давление - измеренное на уровне метеостанции атмосферное давление.
Tmin - Минимальная температура - минимум температуры воздуха на высоте 2 м над землей.
Tmax - Максимальная температура - максимум температуры воздуха на высоте 2 м над землей.
R - Количество осадков - Количество выпавших осадков за период времени, мм. При наведении курсора мыши на число - период времени, за который выпало указанное количество осадков.
R24 - Количество осадков - Количество выпавших осадков за 24 часа, мм.
S - Снежный покров - Высота снежного покрова, см. При наведении курсора мыши на число - состояние снежного покрова и степень покрытия местности в баллах.